{"data":{"norad_id":42719,"epoch":"2026-05-23T16:46:37.310880Z","epoch_age_seconds":177606,"freshness":"STALE","line1":"1 42719U 17027A   26143.69904295 -.00001252  00000+0  00000+0 0  9999","line2":"2 42719  63.0598 251.3391 6985085 273.6369  15.8328  2.00884831 65919","mean_motion":2.00884831,"eccentricity":0.6985085,"inclination_deg":63.0598,"raan_deg":251.3391,"arg_perigee_deg":273.6369,"mean_anomaly_deg":15.8328,"bstar":0,"rev_number":6591,"period_min":716.82863899266,"perigee_km":1621.0432757504,"apogee_km":38686.734452079,"semimajor_km":26532.025863915,"source":"CELESTRAK","updated_at":"2026-05-25T13:37:55.689348Z"}}